Weather History for KLEB - October, 2012

Change the Weather History Date:

Sunday, October 28, 2012

  Actual Average Record
Temperature  
Mean Temperature 52 °F -  
Max Temperature 61 °F 53 °F 77 °F (1971)
Min Temperature 45 °F 33 °F 13 °F (1936)
Degree Days  
Heating Degree Days 12    
Growing Degree Days 2 (Base 50)    
Moisture  
Dew Point 44 °F    
Average Humidity 71    
Maximum Humidity 89    
Minimum Humidity 51    
Precipitation  
Precipitation 0.00 in - - ()
Sea Level Pressure  
Sea Level Pressure 29.95 in    
Wind  
Wind Speed 1 mph (ENE)    
Max Wind Speed 7 mph    
Max Gust Speed -    
Visibility 9 miles    
Events      
Averages and records for this station are not official NWS values.
T = Trace of Precipitation, MM = Missing Value Source: NWS Daily Summary

Daily Weather History Graph

Daily Weather History Graph

Search for Another Location

Airport or City:

Trip Planner

Search our weather history database for the weather conditions in past years. The results will help you decide how hot, cold, wet, or windy it might be!

Date:

Astronomy

Oct. 28, 2012 Rise Set
Actual Time 7:20 AM EDT 5:44 PM EDT
Civil Twilight 6:50 AM EDT 6:14 PM EDT
Nautical Twilight 6:17 AM EDT 6:48 PM EDT
Astronomical Twilight 5:43 AM EDT 7:21 PM EDT
Moon 5:01 PM EDT (10/28) 6:09 AM EDT (10/28)
Length of Visible Light 11h 23m
Length of Day
10h 24m
Waxing Gibbous, 99% of the Moon is Illuminated
Oct 28
Waxing Gibbous
Oct 29
Full
Nov 6
Last Quarter
Nov 13
New
Nov 20
First Quarter

Hourly Weather History & Observations

Time (EDT) Temp. Windchill Dew Point Humidity Pressure Visibility Wind Dir Wind Speed Gust Speed Precip Events Conditions
12:53 AM 53.1 °F - 50.0 °F 89% 30.02 in 6.0 mi Calm Calm - N/A   Overcast
1:53 AM 53.1 °F - 50.0 °F 89% 30.02 in 5.0 mi Calm Calm - N/A   Overcast
2:53 AM 53.1 °F - 50.0 °F 89% 30.01 in 5.0 mi Calm Calm - N/A   Overcast
3:53 AM 50.0 °F - 46.9 °F 89% 30.01 in 3.0 mi Calm Calm - N/A   Overcast
4:53 AM 51.1 °F - 48.0 °F 89% 30.00 in 10.0 mi Calm Calm - N/A   Overcast
5:53 AM 48.0 °F - 45.0 °F 89% 30.01 in 10.0 mi Calm Calm - N/A   Clear
6:53 AM 45.0 °F 42.6 °F 39.9 °F 82% 30.00 in 10.0 mi NE 4.6 mph - N/A   Clear
7:53 AM 46.0 °F - 42.1 °F 86% 30.03 in 10.0 mi Calm Calm - N/A   Overcast
9:53 AM 53.1 °F - 44.1 °F 71% 30.02 in 10.0 mi NW 4.6 mph - N/A   Clear
10:53 AM 57.0 °F - 42.1 °F 57% 30.00 in 10.0 mi ENE 3.5 mph - N/A   Clear
11:53 AM 59.0 °F - 43.0 °F 55% 30.00 in 10.0 mi South 4.6 mph - N/A   Clear
1:53 PM 59.0 °F - 42.1 °F 53% 29.96 in 10.0 mi NE 4.6 mph - N/A   Clear
2:53 PM 60.1 °F - 42.1 °F 51% 29.92 in 10.0 mi Variable 4.6 mph - N/A   Clear
3:53 PM 60.1 °F - 43.0 °F 53% 29.92 in 10.0 mi SE 4.6 mph - N/A   Clear
4:53 PM 59.0 °F - 43.0 °F 55% 29.90 in 10.0 mi Calm Calm - N/A   Clear
5:53 PM 57.0 °F - 43.0 °F 59% 29.89 in 10.0 mi Variable 3.5 mph - N/A   Clear
6:53 PM 55.0 °F - 44.1 °F 67% 29.91 in 10.0 mi Calm Calm - N/A   Clear
7:40 PM 53.6 °F - 44.6 °F 72% 29.91 in 10.0 mi Calm Calm - N/A   Mostly Cloudy
7:53 PM 53.1 °F - 44.1 °F 71% 29.91 in 10.0 mi Calm Calm - N/A   Mostly Cloudy
8:03 PM 53.6 °F - 44.6 °F 72% 29.91 in 10.0 mi Variable 3.5 mph - N/A   Scattered Clouds
8:13 PM 55.4 °F - 44.6 °F 67% 29.91 in 10.0 mi Calm Calm - N/A   Mostly Cloudy
8:53 PM 54.0 °F - 44.1 °F 69% 29.91 in 10.0 mi Calm Calm - N/A   Scattered Clouds
9:53 PM 53.1 °F - 43.0 °F 69% 29.91 in 10.0 mi Calm Calm - N/A   Partly Cloudy
10:53 PM 52.0 °F - 43.0 °F 71% 29.89 in 10.0 mi NE 5.8 mph - N/A   Overcast
11:53 PM 53.1 °F - 44.1 °F 71% 29.87 in 10.0 mi NE 6.9 mph - N/A   Overcast